Time,TemperatureF,DewpointF,PressureIn,WindDirection,WindDirectionDegrees,WindSpeedMPH,WindSpeedGustMPH,Humidity,HourlyPrecipIn,Conditions,Clouds,dailyrainin,SoftwareType,DateUTC
2013-08-23 00:24:00,58.0,57.0,30.13,North,0,0.0,3.0,98,0.00,,,0.14,,2013-08-23 04:24:00,
2013-08-23 00:43:00,56.0,55.0,30.13,North,0,0.0,3.0,97,0.00,,,0.14,,2013-08-23 04:43:00,
2013-08-23 00:54:00,56.0,56.0,30.13,North,0,0.0,3.0,100,0.00,,,0.14,,2013-08-23 04:54:00,
2013-08-23 01:04:00,56.0,56.0,30.13,North,0,0.0,3.0,100,0.00,,,0.14,,2013-08-23 05:04:00,
2013-08-23 01:22:00,56.0,56.0,30.14,North,0,1.0,3.0,100,0.00,,,0.09,,2013-08-23 05:22:00,
2013-08-23 01:53:00,55.0,55.0,30.14,North,0,0.0,3.0,100,0.00,,,0.05,,2013-08-23 05:53:00,
2013-08-23 02:22:00,55.0,55.0,30.14,North,0,0.0,3.0,100,0.00,,,0.02,,2013-08-23 06:22:00,
2013-08-23 02:42:00,54.0,54.0,30.15,North,0,0.0,3.0,100,0.00,,,0.00,,2013-08-23 06:42:00,
2013-08-23 02:52:00,53.0,53.0,30.14,North,0,0.0,3.0,100,0.00,,,0.00,,2013-08-23 06:52:00,
2013-08-23 03:22:00,53.0,53.0,30.14,North,0,2.0,3.0,100,0.00,,,0.00,,2013-08-23 07:22:00,
2013-08-23 03:52:00,53.0,53.0,30.14,North,0,1.0,3.0,100,0.00,,,0.00,,2013-08-23 07:52:00,
2013-08-23 04:22:00,52.0,52.0,30.15,North,0,1.0,4.0,100,0.00,,,0.00,,2013-08-23 08:22:00,
2013-08-23 04:52:00,52.0,52.0,30.15,North,0,1.0,3.0,100,0.00,,,0.00,,2013-08-23 08:52:00,
2013-08-23 05:21:00,51.0,51.0,30.15,North,0,0.0,3.0,100,0.00,,,0.00,,2013-08-23 09:21:00,
2013-08-23 05:53:00,50.0,50.0,30.16,North,0,1.0,3.0,100,0.00,,,0.00,,2013-08-23 09:53:00,
2013-08-23 06:23:00,50.0,50.0,30.17,North,0,2.0,3.0,100,0.00,,,0.00,,2013-08-23 10:23:00,
2013-08-23 06:52:00,49.0,49.0,30.18,North,0,0.0,3.0,100,0.00,,,0.00,,2013-08-23 10:52:00,
2013-08-23 07:22:00,49.0,49.0,30.19,North,0,1.0,3.0,100,0.00,,,0.00,,2013-08-23 11:22:00,
2013-08-23 07:53:00,50.0,50.0,30.19,North,0,2.0,4.0,100,0.00,,,0.00,,2013-08-23 11:53:00,
2013-08-23 08:22:00,51.0,51.0,30.19,SSE,160,0.0,5.0,100,0.00,,,0.00,,2013-08-23 12:22:00,
2013-08-23 08:52:00,54.0,54.0,30.20,SE,142,1.0,3.0,100,0.00,,,0.00,,2013-08-23 12:52:00,
2013-08-23 09:22:00,56.0,56.0,30.21,SSE,150,1.0,3.0,100,0.00,,,0.00,,2013-08-23 13:22:00,
2013-08-23 09:52:00,59.0,59.0,30.21,SSE,161,0.0,3.0,100,0.00,,,0.00,,2013-08-23 13:52:00,
2013-08-23 10:22:00,63.0,62.0,30.22,NNW,342,3.0,5.0,96,0.00,,,0.00,,2013-08-23 14:22:00,
2013-08-23 10:52:00,66.0,62.0,30.22,NE,45,2.0,6.0,86,0.00,,,0.00,,2013-08-23 14:52:00,
2013-08-23 11:22:00,68.0,63.0,30.22,NE,45,3.0,4.0,84,0.00,,,0.00,,2013-08-23 15:22:00,
2013-08-23 11:54:00,69.0,64.0,30.22,NE,45,0.0,4.0,84,0.00,,,0.00,,2013-08-23 15:54:00,
2013-08-23 12:24:00,71.0,63.0,30.22,NNE,14,7.0,7.0,76,0.00,,,0.00,,2013-08-23 16:24:00,
2013-08-23 12:53:00,72.0,61.0,30.22,SSW,212,0.0,10.0,69,0.00,,,0.00,,2013-08-23 16:53:00,
2013-08-23 13:24:00,73.0,62.0,30.21,NE,37,4.0,10.0,69,0.00,,,0.00,,2013-08-23 17:24:00,
2013-08-23 13:53:00,74.0,60.0,30.21,North,1,0.0,9.0,62,0.00,,,0.00,,2013-08-23 17:53:00,
2013-08-23 14:22:00,74.0,60.0,30.21,North,5,6.0,9.0,61,0.00,,,0.00,,2013-08-23 18:22:00,
2013-08-23 14:52:00,76.0,61.0,30.20,North,0,5.0,9.0,60,0.00,,,0.00,,2013-08-23 18:52:00,
2013-08-23 15:22:00,76.0,62.0,30.19,North,353,3.0,12.0,61,0.00,,,0.00,,2013-08-23 19:22:00,
2013-08-23 15:42:00,76.0,63.0,30.19,NNW,346,4.0,10.0,64,0.00,,,0.00,,2013-08-23 19:42:00,
2013-08-23 15:52:00,74.0,64.0,30.19,North,352,6.0,14.0,72,0.00,,,0.00,,2013-08-23 19:52:00,
2013-08-23 16:22:00,73.0,64.0,30.19,North,351,8.0,13.0,73,0.00,,,0.00,,2013-08-23 20:22:00,
2013-08-23 16:52:00,73.0,63.0,30.18,North,351,5.0,13.0,72,0.00,,,0.00,,2013-08-23 20:52:00,
2013-08-23 17:22:00,73.0,63.0,30.18,NNW,330,5.0,12.0,72,0.00,,,0.00,,2013-08-23 21:22:00,
2013-08-23 17:34:00,73.0,63.0,30.18,NNW,330,5.0,12.0,72,0.00,,,0.00,,2013-08-23 21:34:00,
2013-08-23 17:54:00,74.0,64.0,30.17,NNW,342,4.0,10.0,71,0.00,,,0.00,,2013-08-23 21:54:00,
2013-08-23 18:24:00,73.0,63.0,30.17,NNW,345,7.0,12.0,71,0.00,,,0.00,,2013-08-23 22:24:00,
2013-08-23 18:53:00,73.0,63.0,30.17,NNE,23,6.0,11.0,71,0.00,,,0.00,,2013-08-23 22:53:00,
2013-08-23 19:22:00,73.0,63.0,30.16,North,350,3.0,10.0,71,0.00,,,0.00,,2013-08-23 23:22:00,
2013-08-23 19:54:00,72.0,62.0,30.16,North,0,3.0,9.0,72,0.00,,,0.00,,2013-08-23 23:54:00,
2013-08-23 20:22:00,70.0,62.0,30.16,North,0,3.0,8.0,77,0.00,,,0.00,,2013-08-24 00:22:00,
2013-08-23 20:53:00,68.0,62.0,30.17,North,0,2.0,4.0,81,0.00,,,0.00,,2013-08-24 00:53:00,
2013-08-23 21:22:00,65.0,61.0,30.18,North,0,0.0,3.0,86,0.00,,,0.00,,2013-08-24 01:22:00,
2013-08-23 21:42:00,65.0,61.0,30.19,North,0,0.0,1.0,86,0.00,,,0.00,,2013-08-24 01:42:00,
2013-08-23 21:53:00,65.0,58.0,30.19,East,94,0.0,4.0,79,0.00,,,0.00,,2013-08-24 01:53:00,
2013-08-23 22:12:00,66.0,57.0,30.19,SE,137,4.0,4.0,74,0.00,,,0.00,,2013-08-24 02:12:00,
2013-08-23 22:22:00,66.0,57.0,30.18,East,92,3.0,5.0,72,0.00,,,0.00,,2013-08-24 02:22:00,
2013-08-23 22:42:00,66.0,57.0,30.19,East,86,0.0,5.0,73,0.00,,,0.00,,2013-08-24 02:42:00,
2013-08-23 22:52:00,66.0,57.0,30.19,South,184,0.0,5.0,74,0.00,,,0.00,,2013-08-24 02:52:00,
2013-08-23 23:02:00,66.0,57.0,30.19,South,184,0.0,5.0,74,0.00,,,0.00,,2013-08-24 03:02:00,
2013-08-23 23:22:00,62.0,57.0,30.21,South,173,0.0,3.0,83,0.00,,,0.00,,2013-08-24 03:22:00,
2013-08-23 23:34:00,62.0,57.0,30.21,South,173,0.0,3.0,83,0.00,,,0.00,,2013-08-24 03:34:00,
2013-08-23 23:54:00,60.0,56.0,30.21,South,174,0.0,2.0,87,0.00,,,0.00,,2013-08-24 03:54:00,